FW4267 Weather Reports


Display with metric or nautical units.
time (UTC)temp
F
wind
direction
speed
MPH
gust
MPH
rain 1hr
in
rain 24hr
in
rain mn
in
humidity
%
barometer
mb
20260506194706 54 283 0.0 1.0 0.00 0.01 0.01 85 1013.1
20260506193842 54 283 0.0 1.0 0.00 0.01 0.01 85 1013.0
20260506193341 54 282 0.0 1.0 0.00 0.01 0.01 84 1012.8
20260506192843 55 271 0.0 0.0 0.00 0.01 0.01 84 1012.9
20260506192340 55 269 0.0 0.0 0.00 0.01 0.01 83 1012.8
20260506191843 55 271 0.0 0.0 0.00 0.01 0.01 83 1012.7
20260506191340 55 269 0.0 0.0 0.00 0.01 0.01 83 1012.6
20260506190841 56 269 0.0 1.0 0.00 0.01 0.01 83 1012.5
20260506190341 56 271 0.0 1.0 0.00 0.01 0.01 82 1012.5
20260506185840 56 271 0.0 1.0 0.00 0.01 0.01 81 1012.5
20260506185340 56 269 0.0 0.0 0.00 0.01 0.01 81 1012.4
20260506184840 56 271 0.0 1.0 0.00 0.01 0.01 81 1012.3
20260506184703 57 271 0.0 1.0 0.00 0.01 0.01 80 1012.3
20260506184038 57 271 0.0 1.0 0.00 0.01 0.01 80 1012.2
20260506183952 57 271 0.0 1.0 0.00 0.01 0.01 79 1012.3
20260506182841 57 271 0.0 2.0 0.00 0.01 0.01 80 1012.1
20260506182339 57 268 0.0 2.0 0.00 0.01 0.01 78 1012.1
20260506181838 57 282 0.0 4.0 0.00 0.01 0.01 78 1012.1
20260506181339 58 293 0.0 4.0 0.00 0.01 0.01 77 1012.0
20260506180839 58 317 0.0 5.0 0.00 0.01 0.01 76 1011.9
20260506180340 58 317 1.0 6.0 0.00 0.01 0.01 76 1011.9
20260506175839 58 275 1.0 6.0 0.00 0.01 0.01 76 1011.8
20260506175337 58 271 1.0 3.0 0.00 0.01 0.01 76 1011.8
20260506174838 58 300 1.0 3.0 0.00 0.01 0.01 76 1011.8
20260506174337 58 271 0.0 7.0 0.00 0.01 0.01 75 1011.8
20260506173837 58 268 2.0 7.0 0.00 0.01 0.01 74 1011.6
20260506173342 58 281 2.0 4.0 0.00 0.01 0.01 75 1011.6
20260506172837 58 305 1.0 5.0 0.00 0.01 0.01 75 1011.6
20260506172643 58 288 1.0 6.0 0.00 0.01 0.01 74 1011.6
20260506172159 58 309 1.0 6.0 0.00 0.01 0.01 74 1011.6
20260506171339 58 274 0.0 7.0 0.00 0.01 0.01 74 1011.5
20260506170839 58 272 2.0 9.0 0.00 0.01 0.01 72 1011.4
20260506170338 58 293 3.0 9.0 0.00 0.01 0.01 72 1011.3
20260506165839 59 310 3.0 14.0 0.00 0.01 0.01 70 1011.3
20260506165338 59 302 5.0 14.0 0.00 0.01 0.01 69 1011.3
20260506164838 60 288 2.0 7.0 0.00 0.01 0.01 70 1011.2
20260506164338 60 48 2.0 7.0 0.00 0.01 0.01 70 1011.1
20260506163836 60 298 2.0 10.0 0.00 0.01 0.01 71 1011.1
20260506163337 60 296 4.0 10.0 0.00 0.01 0.01 71 1011.1
20260506162835 60 316 4.0 10.0 0.00 0.01 0.01 71 1011.0
20260506162657 60 306 5.0 10.0 0.00 0.02 0.01 69 1010.9
20260506161836 60 324 2.0 11.0 0.00 0.02 0.01 70 1010.8
20260506161337 60 319 4.0 11.0 0.00 0.02 0.01 70 1010.8
20260506160851 60 243 2.0 7.0 0.00 0.03 0.01 72 1010.8
20260506160348 60 293 2.0 6.0 0.00 0.03 0.01 71 1010.8
20260506160144 60 321 2.0 6.0 0.00 0.04 0.01 72 1010.8
20260506155337 60 276 1.0 6.0 0.00 0.04 0.01 73 1010.8
20260506154835 60 310 2.0 10.0 0.00 0.05 0.01 72 1010.8
20260506154337 60 281 3.0 12.0 0.00 0.05 0.01 71 1010.7
20260506153835 60 306 4.0 12.0 0.00 0.06 0.01 69 1010.6
20260506153334 60 327 3.0 10.0 0.00 0.06 0.01 69 1010.6
20260506152835 61 255 5.0 9.0 0.00 0.08 0.01 69 1010.6
20260506152336 61 295 3.0 9.0 0.00 0.09 0.01 69 1010.6
20260506151835 61 327 4.0 10.0 0.00 0.09 0.01 70 1010.7
20260506151336 60 320 3.0 10.0 0.00 0.10 0.01 71 1010.7
20260506150835 61 313 3.0 13.0 0.00 0.10 0.01 69 1010.6
20260506150335 61 310 4.0 13.0 0.00 0.11 0.01 67 1010.7
20260506150147 62 298 5.0 10.0 0.00 0.12 0.01 67 1010.6
20260506145336 62 300 4.0 10.0 0.00 0.14 0.01 67 1010.6
20260506144834 62 231 1.0 10.0 0.00 0.15 0.01 71 1010.6
20260506144333 61 313 5.0 10.0 0.00 0.16 0.01 69 1010.7
20260506143835 62 307 4.0 11.0 0.00 0.17 0.01 68 1010.7
20260506143334 62 296 4.0 11.0 0.00 0.20 0.01 67 1010.6
20260506142834 62 288 3.0 7.0 0.00 0.23 0.01 71 1010.6
20260506142335 62 295 2.0 10.0 0.00 0.27 0.01 68 1010.6
20260506141834 62 319 3.0 10.0 0.00 0.29 0.01 68 1010.6
20260506141334 62 309 3.0 10.0 0.00 0.31 0.01 67 1010.7
20260506140833 62 321 3.0 10.0 0.00 0.31 0.01 69 1010.6
20260506140332 62 314 4.0 10.0 0.00 0.31 0.01 70 1010.6
20260506135833 62 289 3.0 10.0 0.00 0.31 0.01 70 1010.7
20260506135332 62 316 4.0 10.0 0.00 0.31 0.01 69 1010.7
20260506134833 61 292 2.0 9.0 0.00 0.31 0.01 70 1010.7
20260506134331 61 286 4.0 9.0 0.00 0.31 0.01 71 1010.8
20260506133833 61 285 4.0 9.0 0.00 0.31 0.01 70 1010.7
20260506133642 62 324 3.0 7.0 0.00 0.31 0.01 68 1010.8
20260506132832 61 305 4.0 10.0 0.00 0.31 0.01 68 1010.8
20260506132332 61 278 4.0 13.0 0.00 0.31 0.01 67 1010.8
20260506132140 60 310 3.0 13.0 0.00 0.31 0.01 72 1010.8
20260506131331 61 323 4.0 12.0 0.00 0.31 0.01 70 1010.8
20260506130832 62 303 7.0 12.0 0.00 0.31 0.01 67 1010.8
20260506130333 63 300 3.0 7.0 0.00 0.31 0.01 66 1010.7
20260506125831 62 314 4.0 7.0 0.00 0.31 0.01 64 1010.7
20260506125639 62 317 2.0 6.0 0.00 0.31 0.01 65 1010.7
20260506124830 62 305 2.0 5.0 0.00 0.31 0.01 67 1010.6
20260506124331 62 334 3.0 5.0 0.00 0.31 0.01 66 1010.7
20260506123830 63 314 1.0 6.0 0.00 0.31 0.01 68 1010.7
20260506123330 62 313 2.0 6.0 0.00 0.31 0.01 66 1010.6
20260506122830 63 314 2.0 6.0 0.00 0.31 0.01 64 1010.7
20260506122329 62 303 0.0 7.0 0.00 0.31 0.01 68 1010.6
20260506122139 62 299 3.0 7.0 0.00 0.31 0.01 65 1010.7
20260506121331 62 285 3.0 6.0 0.00 0.31 0.01 66 1010.8
20260506120830 62 285 2.0 6.0 0.00 0.31 0.01 67 1010.8
20260506120330 62 317 1.0 6.0 0.00 0.31 0.01 66 1010.8
20260506115830 62 281 2.0 6.0 0.00 0.31 0.01 67 1010.9
20260506115329 62 293 2.0 6.0 0.00 0.31 0.01 67 1010.9
20260506114830 62 298 1.0 5.0 0.00 0.31 0.01 68 1011.0
20260506114330 63 286 1.0 6.0 0.00 0.31 0.01 66 1011.0
20260506113829 64 4 0.0 6.0 0.00 0.31 0.01 64 1011.1
20260506113636 65 321 0.0 4.0 0.00 0.31 0.01 64 1011.0
20260506112828 64 324 2.0 4.0 0.00 0.31 0.01 66 1011.1
20260506112328 63 128 1.0 4.0 0.00 0.31 0.01 70 1011.1
20260506111828 62 71 1.0 4.0 0.00 0.31 0.01 69 1011.2
20260506111329 62 63 2.0 6.0 0.00 0.31 0.01 68 1011.1
20260506110830 61 340 0.0 6.0 0.00 0.31 0.01 71 1011.2
20260506110327 61 299 1.0 5.0 0.00 0.31 0.01 70 1011.3
20260506105829 60 305 1.0 5.0 0.00 0.31 0.01 74 1011.4
20260506105329 59 296 0.0 2.0 0.00 0.31 0.01 74 1011.4
20260506104829 59 300 1.0 4.0 0.00 0.31 0.01 71 1011.5
20260506104328 59 316 1.0 4.0 0.00 0.31 0.01 69 1011.6
20260506103827 60 302 0.0 5.0 0.00 0.31 0.01 71 1011.6
20260506103635 60 292 0.0 6.0 0.00 0.31 0.01 69 1011.6
20260506103136 61 323 2.0 6.0 0.00 0.31 0.01 67 1011.6
20260506102639 61 80 1.0 6.0 0.00 0.31 0.01 70 1011.5
20260506101829 61 309 1.0 6.0 0.00 0.31 0.01 71 1011.5
20260506101634 60 285 1.0 6.0 0.00 0.31 0.01 69 1011.5
20260506100828 61 272 2.0 4.0 0.00 0.31 0.01 68 1011.5
20260506100329 62 264 1.0 4.0 0.00 0.31 0.01 70 1011.6
20260506095826 61 61 1.0 4.0 0.00 0.31 0.01 72 1011.5
20260506095326 60 63 0.0 7.0 0.00 0.31 0.01 73 1011.5
20260506094826 60 306 3.0 7.0 0.00 0.31 0.01 70 1011.5
20260506094327 60 312 1.0 5.0 0.00 0.31 0.01 71 1011.6
20260506093827 60 319 1.0 6.0 0.00 0.31 0.01 72 1011.4
20260506093326 61 266 3.0 6.0 0.00 0.31 0.01 70 1011.5
20260506092829 61 305 1.0 4.0 0.00 0.31 0.01 71 1011.4
20260506092327 60 52 1.0 5.0 0.00 0.31 0.01 75 1011.5
20260506091829 60 111 2.0 7.0 0.00 0.31 0.01 74 1011.4
20260506091326 59 258 2.0 7.0 0.00 0.31 0.01 74 1011.4
20260506090825 59 296 2.0 9.0 0.00 0.31 0.01 74 1011.3
20260506090326 58 330 3.0 9.0 0.00 0.31 0.01 74 1011.3
20260506085825 58 313 2.0 7.0 0.00 0.31 0.01 77 1011.3
20260506085326 57 329 2.0 6.0 0.00 0.31 0.01 78 1011.3
20260506084824 56 303 1.0 7.0 0.00 0.31 0.01 78 1011.3
20260506084328 56 313 2.0 11.0 0.00 0.31 0.01 79 1011.2
20260506083824 56 289 3.0 11.0 0.00 0.31 0.01 78 1011.2
20260506083324 56 300 0.0 6.0 0.00 0.31 0.01 80 1011.3
20260506082824 56 258 2.0 7.0 0.00 0.31 0.01 77 1011.2
20260506082324 56 329 3.0 7.0 0.00 0.31 0.01 76 1011.3
20260506081824 57 307 3.0 7.0 0.00 0.31 0.01 77 1011.2
20260506081324 57 302 1.0 4.0 0.00 0.31 0.01 80 1011.3
20260506080826 56 307 0.0 5.0 0.00 0.31 0.01 85 1011.3
20260506080324 55 314 0.0 5.0 0.00 0.31 0.01 84 1011.3
20260506073326 54 290 2.0 6.0 0.00 0.31 0.01 86 1011.4
20260506072825 54 286 1.0 5.0 0.00 0.31 0.01 89 1011.3
20260506072324 53 288 2.0 5.0 0.00 0.31 0.01 89 1011.5
20260506071823 53 264 1.0 5.0 0.00 0.31 0.01 91 1011.3
20260506071324 53 255 2.0 4.0 0.00 0.31 0.01 93 1011.3
20260506070823 52 295 1.0 4.0 0.00 0.31 0.01 94 1011.2
20260506070323 53 319 0.0 3.0 0.00 0.31 0.01 96 1011.3
20260506062324 51 147 0.0 1.0 0.00 0.31 0.01 98 1011.4
20260506061822 50 147 0.0 1.0 0.00 0.31 0.01 98 1011.3
20260506061322 49 73 0.0 1.0 0.00 0.31 0.01 98 1011.3
20260506060947 47 34 0.0 0.0 0.00 0.31 0.01 98 1011.4
20260506060919 47 34 0.0 1.0 0.00 0.31 0.01 98 1011.3
20260506051321 45 323 0.0 0.0 0.00 0.31 0.01 97 1010.9
20260506050821 45 324 0.0 0.0 0.00 0.31 0.01 97 1010.8
20260506050320 45 323 0.0 0.0 0.00 0.31 0.01 97 1010.8
20260506044819 45 300 0.0 0.0 0.00 0.31 0.01 97 1010.9
20260506044320 45 300 0.0 0.0 0.00 0.31 0.01 97 1010.9
20260506044128 46 300 0.0 0.0 0.00 0.31 0.01 97 1010.9
20260506043631 46 300 0.0 0.0 0.00 0.31 0.01 97 1010.9
20260506042819 46 300 0.0 0.0 0.00 0.31 0.01 97 1010.9
20260506042320 46 300 0.0 0.0 0.00 0.31 0.01 97 1010.8
20260506041832 46 300 0.0 0.0 0.00 0.31 0.01 97 1010.9
20260506041319 46 300 0.0 0.0 0.00 0.31 0.01 97 1010.8
20260506040820 46 300 0.0 0.0 0.01 0.31 0.01 97 1010.8
20260506040319 46 300 0.0 0.0 0.01 0.31 0.01 98 1010.9
20260506035820 46 300 0.0 0.0 0.01 0.31 0.01 98 1010.8
20260506035318 46 300 0.0 0.0 0.01 0.31 0.01 98 1010.8
20260506034820 45 300 0.0 0.0 0.01 0.31 0.01 97 1010.9
20260506034318 45 300 0.0 0.0 0.01 0.31 0.01 97 1010.8
20260506033820 45 300 0.0 0.0 0.01 0.31 0.01 97 1010.9
20260506033318 45 300 0.0 1.0 0.01 0.31 0.01 98 1010.9
20260506032816 45 300 0.0 1.0 0.01 0.31 0.01 98 1010.9
20260506032317 45 300 0.0 1.0 0.01 0.31 0.01 98 1010.9
20260506031817 45 87 0.0 0.0 0.01 0.31 0.01 97 1010.8
20260506031507 45 89 0.0 0.0 0.00 0.31 0.00 97 1010.8
20260506031432 45 87 0.0 0.0 0.01 0.31 0.01 97 1010.9
20260506030318 45 87 0.0 0.0 0.00 0.31 0.00 97 1010.9
20260506025818 45 89 0.0 0.0 0.00 0.31 0.00 97 1010.9
20260506025316 45 87 0.0 0.0 0.00 0.31 0.00 97 1010.9
20260506024816 45 87 0.0 0.0 0.00 0.31 0.00 97 1010.9
20260506024316 45 87 0.0 0.0 0.00 0.31 0.00 97 1011.0
20260506023817 45 87 0.0 0.0 0.00 0.31 0.00 97 1010.9
20260506023622 45 87 0.0 0.0 0.00 0.31 0.00 97 1011.0
20260506022817 45 87 0.0 0.0 0.00 0.31 0.00 97 1011.0
20260506022329 45 87 0.0 0.0 0.00 0.31 0.00 97 1010.9
20260506021818 45 89 0.0 0.0 0.00 0.31 0.00 97 1010.9
20260506021316 45 87 0.0 0.0 0.00 0.31 0.00 97 1010.9
20260506021122 46 87 0.0 0.0 0.00 0.31 0.00 97 1010.8
20260506020315 46 87 0.0 0.0 0.00 0.31 0.00 97 1010.8
20260506015816 46 87 0.0 0.0 0.00 0.31 0.00 97 1010.8
20260506015315 46 89 0.0 0.0 0.00 0.31 0.00 97 1010.8
20260506014814 46 87 0.0 0.0 0.00 0.31 0.00 97 1010.9
20260506014317 46 87 0.0 0.0 0.00 0.31 0.00 97 1010.9
20260506013815 46 87 0.0 0.0 0.00 0.31 0.00 97 1010.8
20260506013316 46 87 0.0 0.0 0.00 0.31 0.00 97 1010.9
20260506012815 46 87 0.0 0.0 0.00 0.31 0.00 97 1010.9
20260506012315 46 87 0.0 0.0 0.00 0.31 0.00 97 1010.9
20260506011815 46 87 0.0 0.0 0.00 0.31 0.00 97 1010.9
20260506011314 46 87 0.0 0.0 0.00 0.31 0.00 97 1010.9
20260506010828 46 87 0.0 0.0 0.00 0.31 0.00 97 1011.0
20260506010316 46 87 0.0 0.0 0.00 0.31 0.00 97 1011.0
20260506005816 46 87 0.0 0.0 0.00 0.31 0.00 97 1011.1
20260506005619 46 87 0.0 0.0 0.00 0.31 0.00 97 1011.2
20260506004815 47 89 0.0 0.0 0.00 0.31 0.00 97 1011.2
20260506004623 47 87 0.0 0.0 0.00 0.31 0.00 97 1011.3
20260506003817 47 87 0.0 0.0 0.00 0.31 0.00 97 1011.2
20260506003314 47 87 0.0 0.0 0.00 0.31 0.00 97 1011.2
20260506002813 48 87 0.0 1.0 0.00 0.31 0.00 97 1011.2
20260506002313 48 87 0.0 1.0 0.00 0.31 0.00 97 1011.3
20260506001813 48 87 0.0 1.0 0.00 0.31 0.00 97 1011.3
20260506001316 48 94 0.0 0.0 0.00 0.31 0.00 97 1011.3
20260506000814 48 94 0.0 0.0 0.00 0.31 0.00 97 1011.5
20260506000314 48 94 0.0 0.0 0.00 0.31 0.00 97 1011.6
20260505235814 48 94 0.0 1.0 0.00 0.31 0.00 97 1011.6
20260505235621 48 94 0.0 1.0 0.00 0.31 0.00 97 1011.8
20260505234814 49 94 0.0 0.0 0.00 0.31 0.00 97 1011.8
20260505234313 49 94 0.0 0.0 0.00 0.31 0.00 97 1011.9
20260505233813 49 94 0.0 0.0 0.00 0.31 0.00 97 1011.9
20260505233449 49 94 0.0 0.0 0.00 0.31 0.00 97 1012.0
20260505233414 49 94 0.0 0.0 0.00 0.31 0.00 97 1011.9
20260505232621 49 94 0.0 0.0 0.00 0.31 0.00 97 1011.9
20260505231813 49 94 0.0 0.0 0.00 0.31 0.00 97 1012.0
20260505231311 49 94 0.0 0.0 0.00 0.31 0.00 97 1012.0
20260505230811 49 94 0.0 0.0 0.00 0.31 0.00 97 1011.9
20260505230314 49 94 0.0 0.0 0.00 0.31 0.00 97 1012.0
20260505230121 49 94 0.0 0.0 0.00 0.31 0.00 97 1011.9
20260505225617 48 94 0.0 0.0 0.00 0.31 0.00 97 1012.0
20260505224811 48 94 0.0 0.0 0.00 0.31 0.00 97 1012.0
20260505224313 48 94 0.0 0.0 0.00 0.31 0.00 97 1012.1
20260505223958 48 94 0.0 0.0 0.00 0.31 0.00 97 1012.0
20260505223919 48 94 0.0 0.0 0.00 0.31 0.00 97 1012.1
20260505222811 48 94 0.0 0.0 0.00 0.31 0.00 97 1012.0
20260505222631 48 94 0.0 0.0 0.00 0.31 0.00 97 1012.1
20260505222625 48 94 0.0 0.0 0.00 0.31 0.00 97 1012.1
20260505222620 48 94 0.0 0.0 0.00 0.31 0.00 97 1012.2
20260505220813 48 94 0.0 0.0 0.00 0.31 0.00 97 1012.2
20260505220310 49 94 0.0 0.0 0.00 0.31 0.00 97 1012.2
20260505215812 49 94 0.0 0.0 0.00 0.31 0.31 97 1012.2
20260505215311 49 94 0.0 0.0 0.00 0.31 0.31 97 1012.3
20260505214809 49 94 0.0 0.0 0.00 0.31 0.31 97 1012.3
20260505214459 49 94 0.0 0.0 0.00 0.31 0.31 97 1012.3
20260505214418 49 94 0.0 0.0 0.00 0.31 0.31 97 1012.2
20260505213627 49 94 0.0 0.0 0.00 0.31 0.31 97 1012.3
20260505213129 49 94 0.0 0.0 0.00 0.31 0.31 97 1012.2
20260505212311 49 94 0.0 0.0 0.00 0.31 0.31 97 1012.3
20260505211810 49 94 0.0 0.0 0.00 0.31 0.31 97 1012.2
20260505211637 49 94 0.0 0.0 0.00 0.31 0.31 97 1012.3
20260505210810 49 94 0.0 0.0 0.00 0.31 0.31 97 1012.4
20260505210310 49 94 0.0 0.0 0.00 0.31 0.31 97 1012.2
20260505205811 49 94 0.0 0.0 0.00 0.31 0.31 97 1012.2
20260505205309 49 94 0.0 0.0 0.00 0.31 0.31 97 1012.2
20260505204811 49 94 0.0 0.0 0.00 0.31 0.31 97 1012.3
20260505204310 49 94 0.0 0.0 0.00 0.31 0.31 96 1012.2
20260505203813 49 94 0.0 0.0 0.00 0.31 0.31 96 1012.1
20260505203537 49 94 0.0 0.0 0.00 0.31 0.31 96 1012.0
20260505203441 49 94 0.0 0.0 0.00 0.31 0.31 96 1012.1
20260505202425 49 94 0.0 0.0 0.00 0.31 0.31 96 1012.0
20260505201312 49 94 0.0 0.0 0.00 0.31 0.31 96 1011.8
20260505200809 49 94 0.0 0.0 0.00 0.31 0.31 96 1011.8
20260505200448 50 94 0.0 0.0 0.00 0.31 0.31 96 1011.9
20260505200414 50 94 0.0 0.0 0.00 0.31 0.31 96 1011.9
20260505195309 50 94 0.0 0.0 0.00 0.31 0.31 96 1011.8
20260505194810 50 94 0.0 0.0 0.00 0.31 0.31 96 1011.9